Location: Dos Palmas
(32.4468°N, 116.8732°W)
Time: 15:25:29
(UTC+00:00)

Cosmos 1864 Rocket - Pass Details

Date: 20 June 2021
Orbit: 950 x 998 km, 82.9° (Epoch: 26 July)

Event Time Altitude Azimuth Distance (km) Brightness Sun altitude
Rises 05:39:57 0° 353° (N) 3,651 8.5 -26.2°
Reaches altitude 10° 05:42:28 10° 352° (N) 2,695 7.6 -26.5°
Maximum altitude 05:48:38 83° 265° (W) 964 4.4 -27.2°
Enters shadow 05:49:28 68° 194° (SSW) 1,024 4.3 -27.2°
